Content
SEND FEEDBACK

Daily
Averages
Monthly
Summary
United States of America

CASTLE, OKLAHOMA


Home > North America > United States > Oklahoma
Elevation: 750 feet     Latitude: 35 37N     Longitude: 096 24W

WEATHER
 
SELECT A DAY
Number of Records: 326,889;   Date Range: 3/28/01 - 7/29/14
 
SHARE

PRINT THIS DATA

[ ← Previous Day ]
WEATHER ALMANAC - JANUARY 23, 2013
[ Next Day → ]
[ °C ]   °F
Weather ElementAverageHighLow
Temperature44.9 °F66.2 °F (4:15 pm)30.2 °F (3:15 am)
Dewpoint36.1 °F46.4 °F (3:35 pm)26.6 °F (3:15 am)
Humidity73.2 %87 % (12:35 am)45 % (1:55 pm)
Barometer30.19 in30.26 in (10:35 am)30.11 in (4:35 pm)
Wind Speed4.2 mph11.5 mph (10:55 pm)
Weather ElementAverage
Visibility10 mi
Wind DirectionENE (64.9 °)

Weather ElementTotal
Precipitation---
Heating Degree Days16.8 (Base 65)
Averaged from 71 records on January 23, 2013
WEATHER CONDITIONS BREAKOUT
WIND DIRECTION BREAKOUT
WEATHER BY HOUR - JANUARY 23, 2013
[ °C ]   °F
Local TimeTemperatureDewpointHumidityBarometerVisibilityWind DirectionWind SpeedGust SpeedPrecipitationEventsConditions
12:35 AM32.0 °F28.4 °F87 %30.25 in10.0 miNE (50°)4.6 mphClear
12:55 AM32.0 °F28.4 °F87 %30.25 in10.0 miENE (70°)5.8 mphClear
1:15 AM32.0 °F28.4 °F87 %30.25 in10.0 miEast (80°)4.6 mphClear
1:35 AM32.0 °F28.4 °F87 %30.23 in10.0 miSSE (150°)4.6 mphClear
1:55 AM32.0 °F28.4 °F87 %30.23 in10.0 miCalmClear
2:15 AM32.0 °F28.4 °F87 %30.22 in10.0 miCalmClear
2:35 AM32.0 °F28.4 °F87 %30.22 in10.0 miENE (60°)3.5 mphClear
2:55 AM32.0 °F28.4 °F87 %30.23 in10.0 miNE (50°)5.8 mphClear
3:15 AM30.2 °F26.6 °F86 %30.23 in10.0 miNE (50°)3.5 mphClear
3:35 AM32.0 °F26.6 °F80 %30.23 in10.0 miEast (100°)3.5 mphClear
3:55 AM30.2 °F26.6 °F86 %30.22 in10.0 miENE (60°)3.5 mphClear
4:15 AM32.0 °F26.6 °F80 %30.21 in10.0 miENE (70°)3.5 mphClear
4:35 AM30.2 °F26.6 °F86 %30.22 in10.0 miNNE (30°)5.8 mphClear
4:55 AM30.2 °F26.6 °F86 %30.23 in10.0 miNE (40°)5.8 mphClear
5:15 AM30.2 °F26.6 °F86 %30.23 in10.0 miNE (40°)5.8 mphClear
5:35 AM30.2 °F26.6 °F86 %30.22 in10.0 miENE (60°)3.5 mphClear
5:55 AM30.2 °F26.6 °F86 %30.22 in10.0 miENE (70°)4.6 mphClear
6:15 AM30.2 °F26.6 °F86 %30.23 in10.0 miEast (80°)3.5 mphClear
6:35 AM30.2 °F26.6 °F86 %30.23 in10.0 miCalmClear
6:55 AM30.2 °F26.6 °F86 %30.23 in10.0 miENE (70°)3.5 mphClear
7:15 AM30.2 °F26.6 °F86 %30.23 in10.0 miCalmClear
7:35 AM32.0 °F26.6 °F80 %30.23 in10.0 miCalmClear
7:55 AM30.2 °F26.6 °F86 %30.23 in10.0 miCalmClear
8:15 AM32.0 °F28.4 °F87 %30.23 in10.0 miCalmClear
8:35 AM33.8 °F28.4 °F81 %30.24 in10.0 miCalmClear
8:55 AM33.8 °F30.2 °F87 %30.24 in10.0 miCalmClear
9:15 AM35.6 °F32.0 °F87 %30.24 in10.0 miSE (130°)3.5 mphClear
9:35 AM37.4 °F32.0 °F81 %30.25 in10.0 miEast (100°)3.5 mphClear
9:55 AM41.0 °F32.0 °F70 %30.25 in10.0 miSSE (150°)3.5 mphClear
10:15 AM42.8 °F32.0 °F66 %30.25 in10.0 miSouth (180°)3.5 mphClear
10:35 AM44.6 °F33.8 °F66 %30.26 in10.0 miCalmClear
10:55 AM46.4 °F35.6 °F66 %30.24 in10.0 miSSE (160°)4.6 mphClear
11:15 AM50.0 °F35.6 °F58 %30.24 in10.0 miCalmClear
11:35 AM51.8 °F35.6 °F54 %30.22 in10.0 miSouth (170°)4.6 mphClear
11:55 AM53.6 °F37.4 °F54 %30.21 in10.0 miSouth (170°)5.8 mphClear
12:15 PM55.4 °F37.4 °F51 %30.20 in10.0 miSouth (180°)5.8 mphClear
12:35 PM57.2 °F39.2 °F51 %30.19 in10.0 miCalmClear
12:55 PM57.2 °F41.0 °F55 %30.17 in10.0 miSSE (160°)4.6 mphClear
1:15 PM60.8 °F41.0 °F48 %30.15 in10.0 miSouth (190°)6.9 mphClear
1:35 PM62.6 °F42.8 °F48 %30.14 in10.0 miSouth (190°)6.9 mphClear
1:55 PM64.4 °F42.8 °F45 %30.13 in10.0 miSSW (200°)3.5 mphClear
2:15 PM64.4 °F42.8 °F45 %30.13 in10.0 miSouth (190°)4.6 mphClear
2:35 PM64.4 °F42.8 °F45 %30.13 in10.0 miCalmClear
2:55 PM64.4 °F44.6 °F49 %30.13 in10.0 miCalmClear
3:15 PM64.4 °F44.6 °F49 %30.12 in10.0 miCalmClear
3:35 PM64.4 °F46.4 °F52 %30.12 in10.0 miSE (130°)4.6 mphClear
3:55 PM62.6 °F46.4 °F55 %30.12 in10.0 miESE (110°)4.6 mphClear
4:15 PM66.2 °F46.4 °F49 %30.12 in10.0 miEast (100°)5.8 mphClear
4:35 PM62.6 °F46.4 °F55 %30.11 in10.0 miEast (100°)4.6 mphClear
4:55 PM60.8 °F44.6 °F55 %30.12 in10.0 miENE (70°)5.8 mphClear
5:15 PM59.0 °F44.6 °F59 %30.11 in10.0 miEast (80°)4.6 mphClear
5:35 PM55.4 °F44.6 °F67 %30.12 in10.0 miENE (70°)4.6 mphClear
5:55 PM55.4 °F44.6 °F67 %30.12 in10.0 miCalmClear
6:15 PM51.8 °F42.8 °F71 %30.12 in10.0 miNE (50°)3.5 mphClear
6:35 PM50.0 °F42.8 °F76 %30.13 in10.0 miNNE (30°)4.6 mphClear
6:55 PM51.8 °F42.8 °F71 %30.13 in10.0 miNNE (30°)5.8 mphClear
7:15 PM50.0 °F42.8 °F76 %30.14 in10.0 miNE (40°)3.5 mphClear
7:35 PM48.2 °F42.8 °F82 %30.14 in10.0 miNE (40°)4.6 mphClear
7:55 PM48.2 °F42.8 °F82 %30.14 in10.0 miNNE (30°)8.1 mphClear
8:15 PM48.2 °F42.8 °F82 %30.14 in10.0 miNE (40°)8.1 mphClear
8:35 PM48.2 °F42.8 °F82 %30.15 in10.0 miNNE (30°)8.1 mphClear
8:55 PM48.2 °F42.8 °F82 %30.15 in10.0 miNNE (30°)6.9 mphClear
9:15 PM48.2 °F42.8 °F82 %30.17 in10.0 miNNE (30°)8.1 mphClear
9:35 PM48.2 °F42.8 °F82 %30.17 in10.0 miNNE (30°)9.2 mphClear
9:55 PM48.2 °F42.8 °F82 %30.18 in10.0 miNE (40°)8.1 mphClear
10:15 PM48.2 °F41.0 °F76 %30.17 in10.0 miNNE (30°)6.9 mphClear
10:35 PM46.4 °F41.0 °F81 %30.18 in10.0 miNE (40°)9.2 mphClear
10:55 PM48.2 °F41.0 °F76 %30.18 in10.0 miNE (40°)11.5 mphClear
11:15 PM46.4 °F41.0 °F81 %30.19 in10.0 miNE (40°)8.1 mphClear
11:35 PM46.4 °F41.0 °F81 %30.19 in10.0 miNE (50°)5.8 mphClear
11:55 PM46.4 °F41.0 °F81 %30.20 in10.0 miNNE (30°)9.2 mphScattered Clouds
Hourly data recorded from KOKM, located miles away from Castle, Oklahoma







STORIES FROM OUR PARTNERS